Flag for U.S.A. Weather past 2 weeks in Rockford, Illinois, U.S.A.

Now
55 °F

Clear.


Feels Like: 52 °F
Forecast: 49 / 62 °F
Wind: 13 mph from West

Location: Greater Rockford Airport

Current Time: Sep 21, 2014 at 7:09:57 AM

Latest Report: Sep 21, 2014 at 5:54 AM


Visibility: 10 mi

Pressure: 29.83 "Hg

Humidity: 87%

Dew point: 51 °F

Location of RockfordLocation

Historic Weather in Rockford — Graph

°F

Rockford temperature yesterday

Maximum temperature yesterday: 78 °F (at 12:54 PM)
Minimum temperature yesterday: 60 °F (at 1:54 AM)
Average temperature yesterday: 68 °F

Past Weeks' High & Low Weather Summary

 TemperatureHumidityPressure
High79 °F (Sep 9, 2:54 PM)97% (Sep 19, 3:54 AM)30.42 "Hg (Sep 19, 3:54 AM)
Low39 °F (Sep 13, 2:54 AM)37% (Sep 7, 2:54 PM)29.51 "Hg (Sep 10, 8:54 AM)
Average59 °F74%30.11 "Hg
* Reported Sep 6 5:54 AM — Sep 21 5:54 AM, Rockford, Weather by CustomWeather, © 2014

Note: Actual official high and low records may vary slightly from our data, if they occured in-between our weather recording intervals... More about our weather records

Advertising

Rockford weather history for previous 24 hours

 ConditionsComfort  
Time TempWeatherWind HumidityBarometerVisibility
5:54 AM
Sep 21
55 °FClear.13 mph87%29.83 "Hg10 mi
4:54 AM56 °FClear.10 mph84%29.83 "Hg10 mi
3:54 AM56 °FClear.6 mph87%29.83 "Hg10 mi
2:54 AM59 °FClear.13 mph87%29.82 "Hg10 mi
1:54 AM62 °FPassing clouds.14 mph83%29.80 "Hg10 mi
12:54 AM65 °FOvercast.12 mph87%29.76 "Hg10 mi
11:54 PM
Sep 20
66 °FMostly cloudy.9 mph87%29.75 "Hg10 mi
11:02 PM67 °FThunderstorms. Mostly cloudy.8 mph90%29.74 "Hg9 mi
10:54 PM67 °FPassing clouds.8 mph90%29.73 "Hg9 mi
9:54 PM67 °FPassing clouds.6 mph87%29.75 "Hg10 mi
8:54 PM68 °FPassing clouds.6 mph87%29.78 "Hg10 mi
7:54 PM70 °FScattered clouds.7 mph81%29.78 "Hg10 mi
6:54 PM73 °FPassing clouds.7 mph74%29.79 "Hg10 mi
5:54 PM75 °FScattered clouds.12 mph69%29.79 "Hg10 mi
4:54 PM75 °FPassing clouds.15 mph64%29.78 "Hg10 mi
3:54 PM73 °FScattered clouds.13 mph79%29.78 "Hg10 mi
2:54 PM71 °FLight rain. Broken clouds.16 mph84%29.83 "Hg7 mi
1:54 PM76 °FMostly cloudy.14 mph67%29.83 "Hg10 mi
12:54 PM78 °FBroken clouds.10 mph62%29.85 "Hg10 mi
7:54 AM63 °FMore clouds than sun.14 mph84%29.87 "Hg10 mi
Weather by CustomWeather, © 2014

See weather overviewHow to use our weather pages